This demonstration page uses our WeatherBlox Daily Observations layout. Learn more.

Left ArrowRight Arrow

Hourly Observations for May 20, 2016

Temp ( °F °C ) Dew Point ( °F °C ) Humidity (%) Winds ( mph kmh ) Pressure ( in mb ) Visibility ( mi km ) Precip ( " mm )
12:52 am 00:52 Cloudy 56 13.3 51 10.6 84 84 SE 8 13 30.03 1017 10 16 0.00 0.03
1:52 am 01:52 Cloudy 55 12.8 50 10 83 83 SE 7 11 30.01 1016 10 16 0.00 0.03
2:52 am 02:52 Partly Cloudy 54 12.2 49 9.4 83 83 ESE 8 13 29.99 1016 10 16 0.00 0.00
3:52 am 03:52 Cloudy 54 12.2 49 9.4 83 83 ESE 9 15 29.98 1015 10 16 0.00 0.00
4:52 am 04:52 Cloudy 54 12.2 50 10 87 87 ESE 5 7 30.00 1016 10 16 0.00 0.00
5:52 am 05:52 Cloudy 54 12.2 50 10 87 87 ESE 6 9 30.00 1016 10 16 0.00 0.00
6:52 am 06:52 Cloudy 54 12.2 50 10 87 87 ESE 6 9 30.02 1017 10 16 0.00 0.00
7:20 am 07:20 Cloudy with Mist and Fog 54 12 50 10 88 88 SE 3 6 30.03 1017 5 8 0.00 0.00
7:52 am 07:52 Cloudy 54 12.2 51 10.6 90 90 ESE 5 7 30.03 1017 8 13 0.00 0.00
8:52 am 08:52 Cloudy with Mist and Fog 55 12.8 51 10.6 87 87 E 5 7 30.04 1017 6 10 0.00 0.00
9:07 am 09:07 Cloudy 56 13.3 51 10.6 84 84 E 6 9 30.06 1018 10 16 0.00 0.00
9:52 am 09:52 Cloudy 57 13.9 52 11.1 83 83 E 6 9 30.04 1017 10 16 0.00 0.00
10:27 am 10:27 Cloudy 57 13.9 52 11.1 83 83 ENE 6 9 30.06 1018 10 16 0.00 0.00
10:52 am 10:52 Cloudy 57 13.9 52 11.1 83 83 E 6 9 30.05 1018 7 11 0.00 0.00
11:14 am 11:14 Cloudy with Mist and Fog 57 14 54 12 88 88 ESE 6 9 30.06 1018 2 3 0.00 0.00
11:23 am 11:23 Cloudy with Mist and Fog 57 13.9 54 12.2 90 90 ENE 6 9 30.06 1018 2 2 0.00 0.00
11:31 am 11:31 Cloudy with Mist and Fog 57 13.9 54 12.2 90 90 E 6 9 30.06 1018 2 3 0.00 0.00
11:38 am 11:38 Cloudy with Mist and Fog 57 14 54 12 88 88 E 5 7 30.06 1018 4 6 0.00 0.00
11:52 am 11:52 Cloudy 57 13.9 53 11.7 87 87 ESE 7 11 30.05 1018 10 16 0.00 0.00
12:52 pm 12:52 Cloudy 59 15 53 11.7 81 81 Calm 30.04 1017 10 16 0.00 0.00
1:52 pm 13:52 Cloudy 60 15.6 52 11.1 75 75 Calm 30.04 1017 10 16 0.00 0.00
2:52 pm 14:52 Cloudy 62 16.7 53 11.7 73 73 Calm 30.04 1017 10 16 0.00 0.00
3:24 pm 15:24 Cloudy 64 18 54 12 68 68 Calm 30.00 1016 10 16 0.00 0.00
3:32 pm 15:32 Cloudy 64 18 54 12 68 68 N 5 7 30.00 1016 10 16 0.00 0.00
3:52 pm 15:52 Cloudy 64 17.8 54 12.2 70 70 ENE 6 9 30.02 1017 10 16 0.00 0.00
4:07 pm 16:07 Cloudy 64 17.8 54 12.2 70 70 ENE 5 7 30.00 1016 10 16 0.00 0.00
4:36 pm 16:36 Cloudy 64 17.8 53 11.7 68 68 SSE 3 6 30.00 1016 10 16 0.00 0.00
4:52 pm 16:52 Cloudy 65 18.3 53 11.7 66 66 Calm 30.02 1017 10 16 0.00 0.00
5:14 pm 17:14 Cloudy 64 18 54 12 68 68 WSW 3 6 30.00 1016 10 16 0.00 0.00
5:21 pm 17:21 Cloudy 64 17.8 53 11.7 68 68 Calm 30.00 1016 10 16 0.00 0.00
5:52 pm 17:52 Cloudy 65 18.3 54 12.2 68 68 Calm 30.01 1016 10 16 0.00 0.00
6:52 pm 18:52 Cloudy 65 18.3 53 11.7 66 66 Calm 30.01 1016 10 16 0.00 0.00
7:52 pm 19:52 Cloudy 64 17.8 53 11.7 68 68 Calm 30.02 1017 10 16 0.00 0.00
8:52 pm 20:52 Cloudy 62 16.7 55 12.8 78 78 NW 3 6 30.04 1017 10 16 0.00 0.00
9:52 pm 21:52 Cloudy 61 16.1 55 12.8 81 81 Calm 30.05 1018 10 16 0.00 0.00
10:52 pm 22:52 Cloudy 61 16.1 55 12.8 81 81 Calm 30.07 1018 10 16 0.00 0.00
11:52 pm 23:52 Mostly Cloudy 60 15.6 54 12.2 80 80 Calm 30.07 1018 10 16 0.00 0.00

Powered by AerisWeather